Location: Diebersbach
(48.5163°N, 8.0558°E)
Time: 21:53:47
(UTC+00:00)

Star 20 E-38 - Visible Passes

Search period start: 22 January 2022 00:00
Search period end: 01 February 2022 00:00
Orbit: 951 x 1010 km, 89.6° (Epoch: 22 January)

Date Brightness Start Highest point End Pass type
(mag) Time Alt. Az. Time Alt. Az. Time Alt. Az.
22 Jan 9.4 06:10:06 10° SE 06:15:40 39° ENE 06:21:14 10° NNE visible
22 Jan 9.4 17:04:00 10° NE 17:07:13 14° ENE 17:10:25 10° ESE visible
22 Jan 7.8 18:46:42 10° N 18:52:51 80° E 18:59:04 10° S visible
22 Jan 10.2 20:32:34 10° NNW 20:36:45 19° WNW 20:40:57 10° WSW visible
23 Jan 10.8 04:57:04 10° E 04:58:56 11° ENE 05:00:48 10° NE visible
23 Jan 8.9 17:29:40 10° NNE 17:34:33 24° ENE 17:39:28 10° SE visible
23 Jan 8.3 19:13:36 10° N 19:19:39 63° W 19:25:46 10° SSW visible
23 Jan 10.8 21:01:12 10° NW 21:03:02 11° WNW 21:04:53 10° W visible
24 Jan 10.5 05:21:03 10° ESE 05:25:14 20° ENE 05:29:24 10° NNE visible
24 Jan 8.3 17:55:59 10° NNE 18:01:44 40° E 18:07:31 10° SSE visible
24 Jan 9.2 19:40:42 10° NNW 19:46:19 38° WNW 19:51:57 10° SW visible
25 Jan 9.8 05:46:24 10° SE 05:51:40 32° ENE 05:56:57 10° NNE visible
25 Jan 7.9 18:22:35 10° N 18:28:44 66° E 18:34:55 10° S visible
25 Jan 10.0 20:08:06 10° NNW 20:12:49 24° WNW 20:17:33 10° WSW visible
26 Jan 8.9 06:12:24 10° SSE 06:18:15 53° E 06:24:09 10° N visible
26 Jan 9.1 17:05:52 10° NNE 17:10:18 20° ENE 17:14:44 10° ESE visible
26 Jan 8.1 18:49:25 10° N 18:55:36 77° W 19:01:49 10° S visible
26 Jan 10.6 20:36:06 10° NW 20:39:10 14° WNW 20:42:14 10° W visible
27 Jan 10.6 04:57:47 10° ESE 05:01:18 16° ENE 05:04:51 10° NNE visible
27 Jan 8.6 17:32:01 10° NNE 17:37:32 33° E 17:43:04 10° SE visible
27 Jan 8.9 19:16:27 10° N 19:22:18 46° W 19:28:12 10° SSW visible
28 Jan 10.1 05:22:46 10° SE 05:27:42 27° ENE 05:32:38 10° NNE visible
28 Jan 8.0 17:58:32 10° N 18:04:36 55° E 18:10:42 10° SSE visible
28 Jan 9.8 19:43:43 10° NNW 19:48:52 28° WNW 19:54:02 10° SW visible
29 Jan 9.2 05:48:33 10° SSE 05:54:13 44° E 05:59:57 10° N visible
29 Jan 7.9 18:25:18 10° N 18:31:30 89° E 18:37:47 10° S visible
29 Jan 10.5 20:11:25 10° NNW 20:15:17 17° WNW 20:19:09 10° WSW visible
30 Jan 10.8 04:34:45 10° E 04:37:25 13° ENE 04:40:06 10° NE visible
30 Jan 8.3 06:14:53 10° SSE 06:20:55 73° E 06:27:00 10° N visible
30 Jan 8.8 17:08:05 10° NNE 17:13:19 27° ENE 17:18:33 10° SE visible
30 Jan 8.6 18:52:15 10° N 18:58:16 56° W 19:04:22 10° SSW visible
31 Jan 10.3 04:59:15 10° ESE 05:03:44 22° ENE 05:08:15 10° NNE visible
31 Jan 8.3 17:34:30 10° NNE 17:40:26 45° E 17:46:25 10° SSE visible
31 Jan 9.5 19:19:25 10° NNW 19:24:54 34° WNW 19:30:26 10° SW visible
